TimeCST,TemperatureF,Dew PointF,Humidity,Sea Level PressureIn,VisibilityMPH,Wind Direction,Wind SpeedMPH,Gust SpeedMPH,PrecipitationIn,Events,Conditions,WindDirDegrees,DateUTC
12:15 AM,33.8,28.4,81,30.03,10.0,SSE,13.8,-,N/A,,Clear,160,2012-11-08 06:15:00
12:35 AM,33.8,28.4,81,30.02,10.0,SSE,12.7,-,N/A,,Clear,160,2012-11-08 06:35:00
12:55 AM,33.8,28.4,81,30.01,10.0,SSE,13.8,-,N/A,,Clear,160,2012-11-08 06:55:00
1:15 AM,33.8,28.4,81,30.00,10.0,SSE,15.0,-,N/A,,Clear,160,2012-11-08 07:15:00
1:35 AM,33.8,28.4,81,30.00,10.0,SSE,15.0,-,N/A,,Clear,160,2012-11-08 07:35:00
1:55 AM,33.8,28.4,81,29.99,10.0,SSE,15.0,-,N/A,,Clear,160,2012-11-08 07:55:00
2:15 AM,33.8,28.4,81,29.99,10.0,South,15.0,-,N/A,,Clear,170,2012-11-08 08:15:00
2:35 AM,33.8,28.4,81,29.99,10.0,SSE,13.8,-,N/A,,Clear,160,2012-11-08 08:35:00
2:55 AM,35.6,28.4,75,29.97,10.0,SSE,16.1,-,N/A,,Clear,160,2012-11-08 08:55:00
3:15 AM,33.8,28.4,81,29.97,10.0,SSE,15.0,-,N/A,,Clear,160,2012-11-08 09:15:00
3:35 AM,33.8,28.4,81,29.96,10.0,SSE,13.8,-,N/A,,Clear,160,2012-11-08 09:35:00
3:55 AM,33.8,28.4,81,29.96,10.0,South,13.8,-,N/A,,Clear,170,2012-11-08 09:55:00
4:15 AM,33.8,28.4,81,29.95,10.0,SSE,13.8,-,N/A,,Clear,160,2012-11-08 10:15:00
4:35 AM,33.8,28.4,81,29.95,10.0,SSE,13.8,-,N/A,,Clear,160,2012-11-08 10:35:00
4:55 AM,33.8,28.4,81,29.94,10.0,SSE,13.8,-,N/A,,Clear,160,2012-11-08 10:55:00
5:15 AM,33.8,30.2,87,29.94,10.0,SSE,15.0,-,N/A,,Clear,160,2012-11-08 11:15:00
5:35 AM,33.8,28.4,81,29.93,10.0,SSE,13.8,-,N/A,,Clear,160,2012-11-08 11:35:00
5:55 AM,33.8,30.2,87,29.92,10.0,SSE,15.0,-,N/A,,Clear,160,2012-11-08 11:55:00
6:15 AM,35.6,30.2,81,29.92,10.0,SSE,15.0,-,N/A,,Clear,160,2012-11-08 12:15:00
6:55 AM,35.6,30.2,81,29.92,10.0,SSE,15.0,20.7,N/A,,Clear,160,2012-11-08 12:55:00
7:15 AM,35.6,30.2,81,29.91,10.0,South,18.4,-,N/A,,Clear,170,2012-11-08 13:15:00
7:35 AM,35.6,30.2,81,29.92,10.0,South,15.0,-,N/A,,Clear,170,2012-11-08 13:35:00
7:55 AM,35.6,30.2,81,29.93,10.0,South,17.3,-,N/A,,Clear,170,2012-11-08 13:55:00
8:15 AM,37.4,30.2,75,29.93,10.0,South,16.1,-,N/A,,Clear,170,2012-11-08 14:15:00
8:35 AM,39.2,32.0,75,29.93,10.0,South,16.1,-,N/A,,Clear,170,2012-11-08 14:35:00
8:55 AM,39.2,32.0,75,29.94,10.0,South,18.4,-,N/A,,Clear,180,2012-11-08 14:55:00
9:15 AM,41.0,32.0,70,29.94,10.0,South,16.1,-,N/A,,Clear,180,2012-11-08 15:15:00
9:35 AM,42.8,33.8,70,29.94,10.0,South,17.3,-,N/A,,Clear,180,2012-11-08 15:35:00
9:55 AM,44.6,33.8,66,29.95,10.0,South,16.1,-,N/A,,Clear,180,2012-11-08 15:55:00
10:15 AM,46.4,35.6,66,29.94,10.0,South,18.4,21.9,N/A,,Clear,180,2012-11-08 16:15:00
10:35 AM,46.4,35.6,66,29.94,10.0,South,18.4,-,N/A,,Clear,180,2012-11-08 16:35:00
10:55 AM,48.2,35.6,62,29.94,10.0,South,19.6,25.3,N/A,,Clear,180,2012-11-08 16:55:00
11:15 AM,50.0,35.6,58,29.93,10.0,South,18.4,24.2,N/A,,Clear,180,2012-11-08 17:15:00
11:35 AM,51.8,35.6,54,29.93,10.0,South,15.0,20.7,N/A,,Clear,190,2012-11-08 17:35:00
11:55 AM,53.6,35.6,51,29.92,10.0,SSW,16.1,19.6,N/A,,Clear,200,2012-11-08 17:55:00
12:15 PM,53.6,35.6,51,29.92,10.0,SSW,16.1,-,N/A,,Clear,200,2012-11-08 18:15:00
12:35 PM,55.4,35.6,47,29.92,10.0,SW,12.7,-,N/A,,Clear,220,2012-11-08 18:35:00
12:55 PM,55.4,35.6,47,29.91,10.0,SW,10.4,16.1,N/A,,Clear,220,2012-11-08 18:55:00
1:15 PM,57.2,35.6,44,29.90,10.0,SSW,11.5,-,N/A,,Clear,210,2012-11-08 19:15:00
1:35 PM,57.2,35.6,44,29.90,7.0,SW,11.5,-,N/A,,Clear,220,2012-11-08 19:35:00
1:55 PM,59.0,35.6,42,29.90,10.0,SW,10.4,-,N/A,,Clear,230,2012-11-08 19:55:00
2:15 PM,59.0,35.6,42,29.90,10.0,WSW,10.4,-,N/A,,Clear,240,2012-11-08 20:15:00
2:35 PM,60.8,35.6,39,29.90,9.0,SW,5.8,-,N/A,,Clear,230,2012-11-08 20:35:00
2:55 PM,60.8,33.8,36,29.90,10.0,WSW,9.2,-,N/A,,Clear,240,2012-11-08 20:55:00
3:15 PM,60.8,33.8,36,29.90,10.0,WSW,4.6,-,N/A,,Clear,240,2012-11-08 21:15:00
3:35 PM,60.8,33.8,36,29.90,10.0,WSW,5.8,-,N/A,,Clear,250,2012-11-08 21:35:00
3:55 PM,60.8,33.8,36,29.91,10.0,Calm,Calm,-,N/A,,Clear,0,2012-11-08 21:55:00
4:15 PM,59.0,35.6,42,29.91,10.0,Calm,Calm,-,N/A,,Clear,0,2012-11-08 22:15:00
4:35 PM,55.4,37.4,51,29.92,10.0,Calm,Calm,-,N/A,,Clear,0,2012-11-08 22:35:00
4:55 PM,53.6,37.4,54,29.92,10.0,Calm,Calm,-,N/A,,Clear,0,2012-11-08 22:55:00
5:15 PM,50.0,37.4,62,29.92,10.0,Calm,Calm,-,N/A,,Clear,0,2012-11-08 23:15:00
5:35 PM,53.6,35.6,51,29.93,10.0,Calm,Calm,-,N/A,,Clear,0,2012-11-08 23:35:00
5:55 PM,51.8,35.6,54,29.93,10.0,Calm,Calm,-,N/A,,Clear,0,2012-11-08 23:55:00
6:15 PM,51.8,35.6,54,29.93,10.0,Calm,Calm,-,N/A,,Clear,0,2012-11-09 00:15:00
6:35 PM,51.8,35.6,54,29.93,10.0,Calm,Calm,-,N/A,,Clear,0,2012-11-09 00:35:00
6:55 PM,50.0,35.6,58,29.94,10.0,North,8.1,-,N/A,,Clear,10,2012-11-09 00:55:00
7:15 PM,46.4,35.6,66,29.94,10.0,North,6.9,-,N/A,,Clear,10,2012-11-09 01:15:00
7:35 PM,46.4,35.6,66,29.94,10.0,NNE,6.9,-,N/A,,Clear,20,2012-11-09 01:35:00
7:55 PM,46.4,35.6,66,29.94,10.0,NNE,5.8,-,N/A,,Clear,20,2012-11-09 01:55:00
8:15 PM,46.4,35.6,66,29.94,10.0,NNE,5.8,-,N/A,,Clear,20,2012-11-09 02:15:00
8:35 PM,42.8,33.8,70,29.94,10.0,Calm,Calm,-,N/A,,Clear,0,2012-11-09 02:35:00
8:55 PM,42.8,33.8,70,29.95,10.0,Calm,Calm,-,N/A,,Clear,0,2012-11-09 02:55:00
9:15 PM,41.0,33.8,76,29.94,10.0,Calm,Calm,-,N/A,,Clear,0,2012-11-09 03:15:00
9:35 PM,39.2,32.0,75,29.94,10.0,Calm,Calm,-,N/A,,Clear,0,2012-11-09 03:35:00
9:55 PM,39.2,33.8,81,29.95,10.0,Calm,Calm,-,N/A,,Clear,0,2012-11-09 03:55:00
10:15 PM,37.4,32.0,81,29.95,10.0,Calm,Calm,-,N/A,,Clear,0,2012-11-09 04:15:00
10:35 PM,37.4,32.0,81,29.95,10.0,Calm,Calm,-,N/A,,Clear,0,2012-11-09 04:35:00
10:55 PM,35.6,32.0,87,29.95,10.0,Calm,Calm,-,N/A,,Clear,0,2012-11-09 04:55:00
11:15 PM,35.6,32.0,87,29.95,10.0,Calm,Calm,-,N/A,,Clear,0,2012-11-09 05:15:00
11:35 PM,35.6,32.0,87,29.94,10.0,Calm,Calm,-,N/A,,Clear,0,2012-11-09 05:35:00
11:55 PM,35.6,32.0,87,29.95,10.0,Calm,Calm,-,N/A,,Clear,0,2012-11-09 05:55:00